Location: Buffign�court
(47.8126°N, 6.0176°E)
Time: 17:52:58
(UTC+00:00)

SL-4 R/B - Pass Details

Date: 16 June 2021
Orbit: 428 x 662 km, 51.6° (Epoch: 22 July)

Event Time Altitude Azimuth Distance (km) Brightness Sun altitude
Exits shadow 22:29:49 12° 95° (E) 1,587 4.1 -17.2°
Drops below altitude 10° 22:30:10 10° 91° (E) 1,683 4.3 -17.2°
Sets 22:32:43 0° 73° (ENE) 2,525 5.4 -17.4°
